Weather History for FBFT - July, 2013

Change the Weather History Date:

Thursday, July 11, 2013

  Actual Average Record
Temperature  
Mean Temperature 60 °F -  
Max Temperature 68 °F 75 °F - ()
Min Temperature 52 °F 44 °F - ()
Degree Days  
Heating Degree Days 5    
Growing Degree Days 10 (Base 50)    
Moisture  
Dew Point 47 °F    
Average Humidity 66    
Maximum Humidity 82    
Minimum Humidity 49    
Precipitation  
Precipitation 0.00 in - - ()
Sea Level Pressure  
Sea Level Pressure 30.33 in    
Wind  
Wind Speed 9 mph ()    
Max Wind Speed 18 mph    
Max Gust Speed -    
Visibility 6.2 miles    
Events      
T = Trace of Precipitation, MM = Missing Value Source: Averaged Metar Reports

Daily Weather History Graph

Daily Weather History Graph

Search for Another Location

Airport or City:

Trip Planner

Search our weather history database for the weather conditions in past years. The results will help you decide how hot, cold, wet, or windy it might be!

Date:

Astronomy

Jul. 11, 2013 Rise Set
Actual Time 6:47 AM CAT 5:43 PM CAT
Civil Twilight 6:23 AM CAT 6:07 PM CAT
Nautical Twilight 5:56 AM CAT 6:34 PM CAT
Astronomical Twilight 5:29 AM CAT 7:02 PM CAT
Moon 8:38 AM CAT (7/11) 8:33 PM CAT (7/11)
Length of Visible Light 11h 43m
Length of Day
10h 55m
Waxing Crescent, 9% of the Moon is Illuminated
Jul 11
Waxing Crescent
Jul 16
First Quarter
Jul 22
Full
Jul 29
Last Quarter
Aug 6
New

Hourly Weather History & Observations

Time (CAT) Temp. Dew Point Humidity Pressure Visibility Wind Dir Wind Speed Gust Speed Precip Events Conditions
12:00 AM 55.4 °F 42.8 °F 63% 30.36 in 6.2 mi East 9.2 mph - N/A   Scattered Clouds
1:00 AM 55.4 °F 42.8 °F 63% 30.36 in 6.2 mi East 9.2 mph - N/A   Scattered Clouds
2:00 AM 55.4 °F 41.0 °F 58% 30.33 in 6.2 mi ESE 5.8 mph - N/A   Scattered Clouds
3:00 AM 53.6 °F 41.0 °F 62% 30.33 in 6.2 mi ESE 8.1 mph - N/A   Mostly Cloudy
4:00 AM 53.6 °F 41.0 °F 62% 30.33 in 6.2 mi East 13.8 mph - N/A   Mostly Cloudy
5:00 AM 51.8 °F 46.4 °F 82% 30.33 in 6.2 mi ESE 6.9 mph - N/A   Scattered Clouds
6:00 AM 53.6 °F 48.2 °F 82% 30.33 in 6.2 mi East 10.4 mph - N/A   Mostly Cloudy
7:00 AM 53.6 °F 48.2 °F 82% 30.18 in 6.2 mi ESE 12.7 mph - N/A   Mostly Cloudy
8:00 AM 56 °F 50 °F 74%  in 6 mi ESE 11.5 mph - -   Partly Cloudy
8:00 AM 55.4 °F 50.0 °F 82% 30.36 in 6.2 mi ESE 11.5 mph - N/A   Mostly Cloudy
9:00 AM 57.2 °F 50.0 °F 77% 30.39 in 6.2 mi ESE 17.3 mph - N/A   Mostly Cloudy
10:00 AM 59.0 °F 50.0 °F 72% 30.39 in 6.2 mi East 17.3 mph - N/A   Mostly Cloudy
11:00 AM 60 °F 49 °F 59%  in 6 mi East 13.8 mph - -   Partly Cloudy
11:00 AM 60.8 °F 50.0 °F 68% 30.15 in 6.2 mi East 13.8 mph - N/A   Mostly Cloudy
12:00 PM 60.8 °F 50.0 °F 68% 30.39 in 6.2 mi East 18.4 mph - N/A   Mostly Cloudy
1:00 PM 62.6 °F 48.2 °F 59% 30.33 in 6.2 mi East 13.8 mph - N/A   Mostly Cloudy
2:00 PM 62 °F 48 °F 49%  in 6 mi NNE 6.9 mph - -   Partly Cloudy
2:00 PM 62.6 °F 48.2 °F 59% 30.33 in 6.2 mi ESE 11.5 mph - N/A   Mostly Cloudy
3:00 PM 59.0 °F 50.0 °F 72% 30.33 in 6.2 mi East 13.8 mph - N/A   Mostly Cloudy
4:00 PM 62 °F 48 °F 49%  in 6 mi NNE 6.9 mph - -   Partly Cloudy
5:00 PM 62 °F 48 °F 49%  in 6 mi NNE 6.9 mph - -   Partly Cloudy
5:00 PM 62.6 °F 48.2 °F 59% 30.33 in 6.2 mi NNE 6.9 mph - N/A   Scattered Clouds
6:00 PM 60.8 °F 46.4 °F 59% 30.33 in 6.2 mi East 9.2 mph - N/A   Scattered Clouds
7:00 PM 60.8 °F 44.6 °F 55% 30.33 in 6.2 mi ESE 8.1 mph - N/A   Scattered Clouds
8:00 PM 56 °F 46 °F 61%  in 6 mi ESE 5.8 mph - -   Partly Cloudy
8:00 PM 55.4 °F 46.4 °F 72% 30.33 in 6.2 mi ESE 5.8 mph - N/A   Scattered Clouds
9:00 PM 57.2 °F 46.4 °F 67% 30.36 in 6.2 mi SE 9.2 mph - N/A   Scattered Clouds
10:00 PM 57.2 °F 48.2 °F 72% 30.36 in - SE 15.0 mph - N/A   Clear
11:00 PM 55.4 °F 48.2 °F 77% 30.36 in 6.2 mi ESE 11.5 mph - N/A   Scattered Clouds